This demonstration page uses our WeatherBlox Daily Observations layout. Learn more.

Left ArrowRight Arrow

53.62937, 11.41316

Hourly Observations for May 14, 2019

Temp ( °F °C ) Dew Point ( °F °C ) Humidity (%) Winds ( mph kmh ) Pressure ( in mb ) Visibility ( mi km ) Precip ( " mm )
6:50 am 06:50 Mostly Sunny 41 5 36 2 81 81 VRB 1 2 30.60 1036 7 11 N/A
7:20 am 07:20 Mostly Sunny 46 8 39 4 76 76 VRB 2 4 30.59 1036 7 11 N/A
7:50 am 07:50 Mostly Sunny 48 9 41 5 76 76 NNE 6 9 30.59 1036 7 11 N/A
8:20 am 08:20 Mostly Sunny 50 10 41 5 71 71 NNE 8 13 30.59 1036 7 11 N/A
8:50 am 08:50 Mostly Sunny 52 11 43 6 72 72 NE 8 13 30.59 1036 30 48 N/A
9:20 am 09:20 Mostly Sunny 52 11 39 4 62 62 ENE 10 17 30.59 1036 30 48 N/A
9:50 am 09:50 Mostly Sunny 54 12 39 4 58 58 NE 8 13 30.59 1036 30 48 N/A
10:20 am 10:20 Mostly Sunny 54 12 37 3 54 54 NNE 9 15 30.59 1036 30 48 N/A
10:50 am 10:50 Mostly Sunny 55 13 36 2 47 47 E 10 17 30.59 1036 30 48 N/A
11:20 am 11:20 Mostly Sunny 55 13 36 2 47 47 ENE 9 15 30.56 1035 30 48 N/A
11:50 am 11:50 Partly Cloudy 57 14 36 2 44 44 ENE 9 15 30.56 1035 30 48 N/A
12:20 pm 12:20 Partly Cloudy 55 13 34 1 44 44 NE 12 19 30.56 1035 30 48 N/A
12:50 pm 12:50 Partly Cloudy 54 12 30 -1 41 41 NNE 10 17 30.56 1035 30 48 N/A
1:20 pm 13:20 Partly Cloudy 55 13 32 undefined 41 41 ENE 10 17 30.56 1035 30 48 N/A
1:50 pm 13:50 Mostly Sunny 55 13 30 -1 38 38 NE 9 15 30.56 1035 7 11 N/A
2:20 pm 14:20 Mostly Sunny 57 14 28 -2 33 33 ENE 13 20 30.53 1034 7 11 N/A
2:50 pm 14:50 Mostly Sunny 57 14 32 undefined 39 39 NE 10 17 30.53 1034 7 11 N/A
3:20 pm 15:20 Mostly Sunny 57 14 28 -2 33 33 ENE 13 20 30.53 1034 7 11 N/A
3:50 pm 15:50 Mostly Sunny 57 14 30 -1 36 36 NE 10 17 30.50 1033 7 11 N/A
4:20 pm 16:20 Mostly Sunny 57 14 30 -1 36 36 NNE 13 20 30.50 1033 7 11 N/A
4:50 pm 16:50 Mostly Sunny 55 13 28 -2 36 36 NNE 12 19 30.50 1033 7 11 N/A
5:20 pm 17:20 Mostly Sunny 55 13 30 -1 38 38 N 14 22 30.50 1033 7 11 N/A
5:50 pm 17:50 Mostly Sunny 54 12 28 -2 38 38 NNE 15 24 30.51 1033 7 11 N/A
6:20 pm 18:20 Mostly Sunny 54 12 28 -2 38 38 NNE 13 20 30.51 1033 7 11 N/A
6:50 pm 18:50 Mostly Sunny 52 11 28 -2 41 41 NE 10 17 30.48 1032 7 11 N/A
7:20 pm 19:20 Mostly Sunny 52 11 28 -2 41 41 NE 9 15 30.48 1032 7 11 N/A
7:50 pm 19:50 Mostly Sunny 52 11 30 -1 44 44 NE 8 13 30.48 1032 7 11 N/A
8:20 pm 20:20 Mostly Sunny 52 11 28 -2 41 41 NE 7 11 30.48 1032 7 11 N/A
8:50 pm 20:50 Mostly Sunny 50 10 30 -1 47 47 NE 8 13 30.48 1032 7 11 N/A

Powered by AerisWeather